Home > Weather > Nablus > Past weeks

Flag for Palestinian Territories Weather for the Past 2 Weeks in Nablus, West Bank, Palestinian Territories

Now
50 °F

Light rain. Passing clouds.


Feels Like: 46 °F
Forecast: 36 / 51 °F
Wind: 9 mph from Southeast

Location: Ben Gurion International Airport

Current Time: Feb 8, 2016 at 12:31:02 AM

Latest Report: Feb 7, 2016 at 11:20 PM


Visibility: N/A

Pressure: 30.15 "Hg (28.27 "Hg at 534m altitude)

Humidity: 94%

Dew point: 48 °F

Location of NablusLocation

Historic Weather in Nablus — Graph

°F

Nablus Temperature Yesterday

Maximum temperature yesterday: 57 °F (at 3:20 PM)
Minimum temperature yesterday: 48 °F (at 4:20 AM)
Average temperature yesterday: 52 °F

High & Low Weather Summary for the Past Weeks

 TemperatureHumidityPressure
High75 °F (Feb 4, 2:20 PM)94% (Feb 3, 6:50 AM)30.45 "Hg (Feb 3, 6:50 AM)
Low34 °F (Jan 28, 5:50 AM)21% (Feb 4, 2:20 PM)29.92 "Hg (Feb 5, 1:20 PM)
Average52 °F70%30.19 "Hg
* Reported Jan 23 10:20 PM — Feb 7 10:50 PM, Nablus, Weather by CustomWeather, © 2016

Note: Actual official high and low records may vary slightly from our data, if they occured in-between our weather recording intervals... More about our weather records

Advertising

Nablus Weather History for the Previous 24 Hours

 ConditionsComfort  
Time TempWeatherWind HumidityBarometerVisibility
10:50 PM
Sun, Feb 7
50 °FPassing clouds.8 mph94%30.15 "HgN/A
10:20 PM50 °FLight rain. Passing clouds.3 mph88%30.12 "HgN/A
9:50 PM50 °FPassing clouds.9 mph88%30.12 "HgN/A
9:20 PM50 °FPassing clouds.10 mph88%30.12 "HgN/A
8:50 PM50 °FPassing clouds.9 mph94%30.12 "HgN/A
8:20 PM50 °FPassing clouds.9 mph94%30.12 "HgN/A
7:50 PM52 °FPassing clouds.9 mph88%30.09 "HgN/A
7:20 PM52 °FLight rain. Passing clouds.13 mph88%30.09 "HgN/A
6:50 PM52 °FPassing clouds.10 mph88%30.09 "HgN/A
6:20 PM52 °FPassing clouds.8 mph88%30.07 "HgN/A
5:50 PM52 °FPassing clouds.8 mph88%30.07 "HgN/A
5:20 PM54 °FPassing clouds.8 mph82%30.07 "HgN/A
4:50 PM55 °FScattered clouds.6 mph77%30.04 "HgN/A
4:20 PM57 °FScattered clouds.8 mph67%30.04 "HgN/A
3:50 PM57 °FBroken clouds.7 mph67%30.04 "HgN/A
3:20 PM57 °FScattered clouds.7 mph67%30.04 "HgN/A
2:50 PM55 °FBroken clouds.10 mph72%30.01 "HgN/A
2:20 PM55 °FRain. Scattered clouds.9 mph77%30.01 "Hg6 mi
1:50 PM54 °FBroken clouds.8 mph82%30.01 "HgN/A
1:20 PM54 °FScattered clouds.13 mph82%30.01 "HgN/A
12:50 PM55 °FScattered clouds.5 mph72%30.01 "HgN/A
12:20 PM54 °FLight rain. Partly sunny.2 mph77%30.01 "HgN/A
11:50 AM54 °FLight rain. Broken clouds.12 mph72%30.01 "HgN/A
11:20 AM55 °FScattered clouds.3 mph72%30.01 "HgN/A
10:50 AM52 °FLight rain. Broken clouds.6 mph88%30.01 "Hg5 mi
10:20 AM52 °FLight rain. Broken clouds.6 mph82%30.04 "Hg4 mi
9:50 AM52 °FRain. Broken clouds.6 mph88%30.04 "Hg2 mi
9:20 AM54 °FBroken clouds.5 mph82%30.01 "Hg6 mi
8:50 AM55 °FLight rain. Broken clouds.7 mph77%30.01 "Hg5 mi
8:20 AM55 °FLight rain. Broken clouds.12 mph77%29.98 "Hg6 mi
7:50 AM52 °FBroken clouds.6 mph88%29.98 "HgN/A
7:20 AM50 °FBroken clouds.8 mph94%29.98 "HgN/A
6:50 AM50 °FBroken clouds.12 mph88%29.95 "HgN/A
6:20 AM50 °FPartly cloudy.10 mph88%29.95 "HgN/A
5:20 AM50 °FRain. Passing clouds.7 mph94%29.95 "Hg6 mi
4:50 AM50 °FLight rain. Passing clouds.6 mph94%29.95 "Hg6 mi
4:20 AM48 °FRain. Passing clouds.12 mph94%29.95 "Hg5 mi
3:20 AM50 °FLight rain. Passing clouds.15 mph88%29.92 "HgN/A
2:50 AM50 °FLight rain. Passing clouds.12 mph88%29.92 "HgN/A
2:20 AM50 °FRain. Passing clouds.13 mph88%29.95 "HgN/A
1:50 AM50 °FPassing clouds.12 mph94%29.95 "HgN/A
1:20 AM50 °FLight rain. Passing clouds.10 mph94%29.95 "HgN/A
12:50 AM52 °FPassing clouds.7 mph88%29.95 "HgN/A
12:20 AM54 °FPassing clouds.14 mph77%29.95 "HgN/A
Weather by CustomWeather, © 2016

See weather overviewHow to use our weather pages